When you browse on this site, cookies collect data to enhance your experience and personalize the content and advertising you see.
Visit our Privacy Policy to learn more. By continuing to use the site, you agree to this use of cookies and data.
  • en Suisse
  • Liste des pays
  • À 7 jours
  • Température de l'eau
  • Carte satellitaire
  • Carte météo
  • Widgets météo
  • user-avatar
    Se connecter

    Météo par heure à Plakho-Petrivka

    Ce jour, 23 Juillet, Mardi

    Heure Température Précipitation Vent Pression Humidité
    00:00 +20°C° 0 mm 2 m/s 749 mmHg 55%
    01:00 +20°C° 0 mm 2 m/s 749 mmHg 57%
    02:00 +19°C° 0 mm 3 m/s 748 mmHg 59%
    03:00 +19°C° 0 mm 3 m/s 748 mmHg 69%
    04:00 +19°C° 0 mm 3 m/s 748 mmHg 69%
    05:00 +20°C° 0 mm 3 m/s 748 mmHg 68%
    06:00 +20°C° 0 mm 3 m/s 748 mmHg 68%
    07:00 +22°C° 0 mm 4 m/s 747 mmHg 63%
    08:00 +25°C° 0 mm 4 m/s 747 mmHg 59%
    09:00 +27°C° 0 mm 5 m/s 747 mmHg 54%
    10:00 +28°C° 0 mm 5 m/s 747 mmHg 53%
    11:00 +28°C° 0 mm 4 m/s 747 mmHg 52%
    12:00 +28°C° 0 mm 4 m/s 747 mmHg 51%
    13:00 +28°C° 0.1 mm 3 m/s 747 mmHg 50%
    14:00 +29°C° 0.1 mm 3 m/s 746 mmHg 48%
    15:00 +29°C° 0.1 mm 2 m/s 746 mmHg 47%
    16:00 +28°C° 0 mm 2 m/s 746 mmHg 51%
    17:00 +27°C° 0 mm 3 m/s 746 mmHg 56%
    18:00 +26°C° 0 mm 3 m/s 746 mmHg 60%
    19:00 +25°C° 0.2 mm 3 m/s 746 mmHg 65%
    20:00 +22°C° 0.2 mm 3 m/s 746 mmHg 70%
    21:00 +21°C° 0.2 mm 3 m/s 746 mmHg 75%
    22:00 +20°C° 0.2 mm 3 m/s 746 mmHg 77%
    23:00 +20°C° 0.2 mm 2 m/s 746 mmHg 79%

    Demain, 24 Juillet, Mercredi

    Heure Température Précipitation Vent Pression Humidité
    00:00 +20°C° 0.2 mm 2 m/s 746 mmHg 81%
    01:00 +19°C° 0.4 mm 2 m/s 746 mmHg 82%
    02:00 +19°C° 0.4 mm 2 m/s 745 mmHg 84%
    03:00 +19°C° 0.4 mm 2 m/s 745 mmHg 85%
    04:00 +19°C° 0.2 mm 2 m/s 745 mmHg 85%
    05:00 +19°C° 0.2 mm 2 m/s 745 mmHg 85%
    06:00 +19°C° 0.2 mm 3 m/s 745 mmHg 85%
    07:00 +19°C° 0.3 mm 2 m/s 745 mmHg 83%
    08:00 +20°C° 0.3 mm 2 m/s 745 mmHg 81%
    09:00 +21°C° 0.3 mm 2 m/s 745 mmHg 80%
    10:00 +21°C° 0.4 mm 2 m/s 745 mmHg 79%
    11:00 +21°C° 0.4 mm 2 m/s 745 mmHg 78%
    12:00 +22°C° 0.4 mm 1 m/s 746 mmHg 77%
    13:00 +23°C° 0.2 mm 2 m/s 745 mmHg 76%
    14:00 +23°C° 0.2 mm 2 m/s 745 mmHg 74%
    15:00 +23°C° 0.2 mm 2 m/s 745 mmHg 73%
    16:00 +23°C° 1.1 mm 2 m/s 745 mmHg 74%
    17:00 +24°C° 1.1 mm 2 m/s 745 mmHg 75%
    18:00 +24°C° 1.1 mm 2 m/s 745 mmHg 76%
    19:00 +21°C° 0.7 mm 2 m/s 745 mmHg 81%
    20:00 +21°C° 0.7 mm 1 m/s 745 mmHg 86%
    21:00 +20°C° 0.7 mm 1 m/s 745 mmHg 90%
    22:00 +20°C° 0.1 mm 1 m/s 745 mmHg 91%
    23:00 +18°C° 0.1 mm 2 m/s 745 mmHg 93%

    Après-demain, 25 Juillet, Jeudi

    Heure Température Précipitation Vent Pression Humidité
    00:00 +18°C° 0.1 mm 2 m/s 745 mmHg 94%
    01:00 +18°C° 0 mm 2 m/s 745 mmHg 94%
    02:00 +18°C° 0 mm 1 m/s 745 mmHg 95%
    03:00 +18°C° 0 mm 1 m/s 745 mmHg 96%
    04:00 +18°C° 0 mm 1 m/s 745 mmHg 96%
    05:00 +18°C° 0 mm 1 m/s 745 mmHg 95%
    06:00 +19°C° 0 mm 1 m/s 745 mmHg 95%
    07:00 +19°C° 0.2 mm 2 m/s 745 mmHg 90%
    08:00 +21°C° 0.2 mm 2 m/s 745 mmHg 84%
    09:00 +23°C° 0.2 mm 2 m/s 745 mmHg 79%
    10:00 +24°C° 1.4 mm 2 m/s 745 mmHg 75%
    11:00 +24°C° 1.4 mm 2 m/s 745 mmHg 71%
    12:00 +25°C° 1.4 mm 2 m/s 745 mmHg 68%
    13:00 +26°C° 1.4 mm 1 m/s 744 mmHg 64%
    14:00 +26°C° 1.4 mm 1 m/s 744 mmHg 61%
    15:00 +27°C° 1.4 mm 1 m/s 744 mmHg 57%
    16:00 +27°C° 0.2 mm 1 m/s 744 mmHg 57%
    17:00 +27°C° 0.2 mm 1 m/s 744 mmHg 57%
    18:00 +27°C° 0.2 mm 1 m/s 744 mmHg 57%
    19:00 +25°C° 0.1 mm 2 m/s 744 mmHg 65%
    20:00 +23°C° 0.1 mm 2 m/s 744 mmHg 73%
    21:00 +20°C° 0.1 mm 2 m/s 744 mmHg 80%
    22:00 +21°C° 0 mm 1 m/s 744 mmHg 83%
    23:00 +20°C° 0 mm 1 m/s 744 mmHg 86%

    26 Juillet, Vendredi

    Heure Température Précipitation Vent Pression Humidité
    00:00 +20°C° 0 mm 1 m/s 744 mmHg 88%
    01:00 +19°C° 0 mm 1 m/s 744 mmHg 90%
    02:00 +19°C° 0 mm 1 m/s 743 mmHg 91%
    03:00 +19°C° 0 mm 1 m/s 743 mmHg 92%
    04:00 +19°C° 0 mm 1 m/s 743 mmHg 92%
    05:00 +19°C° 0 mm 1 m/s 743 mmHg 92%
    06:00 +18°C° 0 mm 2 m/s 744 mmHg 93%
    07:00 +19°C° 0.2 mm 2 m/s 744 mmHg 86%
    08:00 +21°C° 0.2 mm 2 m/s 744 mmHg 80%
    09:00 +24°C° 0.2 mm 2 m/s 744 mmHg 74%
    10:00 +25°C° 1.2 mm 3 m/s 744 mmHg 68%
    11:00 +26°C° 1.2 mm 3 m/s 744 mmHg 63%
    12:00 +27°C° 1.2 mm 4 m/s 744 mmHg 57%
    13:00 +27°C° 0.6 mm 4 m/s 744 mmHg 57%
    14:00 +27°C° 0.6 mm 4 m/s 743 mmHg 56%
    15:00 +27°C° 0.6 mm 4 m/s 743 mmHg 55%
    16:00 +27°C° 0.6 mm 4 m/s 743 mmHg 58%
    17:00 +26°C° 0.6 mm 3 m/s 743 mmHg 61%
    18:00 +26°C° 0.6 mm 3 m/s 743 mmHg 63%
    19:00 +24°C° 0.1 mm 3 m/s 743 mmHg 68%
    20:00 +23°C° 0.1 mm 2 m/s 743 mmHg 74%
    21:00 +20°C° 0.1 mm 2 m/s 744 mmHg 79%
    22:00 +19°C° 0 mm 2 m/s 744 mmHg 81%
    23:00 +19°C° 0 mm 2 m/s 743 mmHg 82%

    27 Juillet, Samedi

    Heure Température Précipitation Vent Pression Humidité
    00:00 +18°C° 0 mm 2 m/s 743 mmHg 84%
    01:00 +18°C° 0 mm 2 m/s 743 mmHg 86%
    02:00 +17°C° 0 mm 2 m/s 743 mmHg 88%
    03:00 +17°C° 0 mm 2 m/s 743 mmHg 90%
    04:00 +17°C° 0 mm 2 m/s 743 mmHg 89%
    05:00 +17°C° 0 mm 2 m/s 743 mmHg 89%
    06:00 +17°C° 0 mm 2 m/s 743 mmHg 88%
    07:00 +19°C° 0 mm 3 m/s 743 mmHg 81%
    08:00 +21°C° 0 mm 3 m/s 743 mmHg 75%
    09:00 +24°C° 0 mm 3 m/s 743 mmHg 68%
    10:00 +25°C° 0 mm 3 m/s 743 mmHg 62%
    11:00 +26°C° 0 mm 3 m/s 743 mmHg 55%
    12:00 +28°C° 0 mm 3 m/s 743 mmHg 49%
    13:00 +28°C° 0 mm 4 m/s 743 mmHg 47%
    14:00 +29°C° 0 mm 4 m/s 743 mmHg 45%
    15:00 +29°C° 0 mm 4 m/s 742 mmHg 43%
    16:00 +29°C° 0 mm 3 m/s 742 mmHg 47%
    17:00 +28°C° 0 mm 3 m/s 742 mmHg 52%
    18:00 +27°C° 0 mm 3 m/s 742 mmHg 57%
    19:00 +25°C° 0.1 mm 2 m/s 742 mmHg 64%
    20:00 +23°C° 0.1 mm 2 m/s 742 mmHg 71%
    21:00 +21°C° 0.1 mm 1 m/s 742 mmHg 79%
    22:00 +21°C° 0 mm 1 m/s 742 mmHg 80%
    23:00 +20°C° 0 mm 1 m/s 742 mmHg 81%

    28 Juillet, Dimanche

    Heure Température Précipitation Vent Pression Humidité
    00:00 +18°C° 0 mm 0 m/s 742 mmHg 82%
    01:00 +18°C° 0 mm 0 m/s 741 mmHg 83%
    02:00 +19°C° 0 mm 1 m/s 741 mmHg 84%
    03:00 +19°C° 0 mm 1 m/s 741 mmHg 84%
    04:00 +19°C° 0 mm 1 m/s 741 mmHg 85%
    05:00 +20°C° 0 mm 1 m/s 741 mmHg 85%
    06:00 +20°C° 0 mm 1 m/s 741 mmHg 85%
    07:00 +21°C° 0 mm 1 m/s 741 mmHg 79%
    08:00 +23°C° 0 mm 2 m/s 741 mmHg 72%
    09:00 +25°C° 0 mm 2 m/s 741 mmHg 65%
    10:00 +26°C° 0 mm 2 m/s 741 mmHg 61%
    11:00 +27°C° 0 mm 3 m/s 740 mmHg 56%
    12:00 +28°C° 0 mm 3 m/s 740 mmHg 51%
    13:00 +29°C° 0 mm 3 m/s 740 mmHg 50%
    14:00 +29°C° 0 mm 3 m/s 739 mmHg 49%
    15:00 +29°C° 0 mm 3 m/s 739 mmHg 47%
    16:00 +29°C° 0 mm 4 m/s 739 mmHg 49%
    17:00 +28°C° 0 mm 4 m/s 739 mmHg 52%
    18:00 +28°C° 0 mm 4 m/s 739 mmHg 54%
    19:00 +26°C° 0.6 mm 4 m/s 739 mmHg 65%
    20:00 +22°C° 0.6 mm 5 m/s 739 mmHg 76%
    21:00 +20°C° 0.6 mm 5 m/s 739 mmHg 87%
    22:00 +19°C° 0 mm 5 m/s 739 mmHg 88%
    23:00 +16°C° 0 mm 6 m/s 740 mmHg 89%
    Voir plus